Orbital Elements at Epoch 2459000.5 (2020-May-31.0) TDB
Reference: JPL 24 (heliocentric ecliptic J2000)
Element | Value | Uncertainty (1-sigma) | Units |
e | .1415273412975967 | 3.4245e-08 | |
a | 2.486404928947756 | 1.0667e-08 | au |
q | 2.13451064996454 | 8.769e-08 | au |
i | 4.303479523847276 | 3.692e-06 | deg |
node | 175.9022962119792 | 4.6086e-05 | deg |
peri | 218.0851483517675 | 4.8068e-05 | deg |
M | 198.9461322925672 | 1.6051e-05 | deg |
tp | 2459641.155961930468 (2022-Mar-02.65596193) | 6.5482e-05 | TDB |
period | 1432.043511764259 3.92 | 9.2153e-06 2.523e-08 | d yr |
n | .2513890095116487 | 1.6177e-09 | deg/d |
Q | 2.838299207930972 | 1.2176e-08 | au |
|
| | Orbit Determination Parameters
Additional Information
|